Location: Unspecified
(35.7250°N, 0.0000°E)
Time: 01:06:17
(UTC+00:00)

Courier 1B Rocket - Pass Details

Date: 24 June 2019
Orbit: 920 x 1202 km, 28.2° (Epoch: 21 July)

Event Time Altitude Azimuth Distance (km) Brightness Sun altitude
Exits shadow 01:52:22 19° 141° (SE) 2,330 6.7 -25.4°
Drops below altitude 10° 01:55:46 10° 113° (ESE) 2,855 7.5 -25.1°
Sets 01:59:12 0° 96° (E) 3,756 8.4 -24.7°
